Weather History for KFAR - October, 2011

Change the Weather History Date:

Saturday, October 8, 2011

  Actual Average Record
Temperature  
Mean Temperature 61 °F 49 °F  
Max Temperature 68 °F 60 °F 86 °F (2003)
Min Temperature 53 °F 38 °F 16 °F (1917)
Degree Days  
Heating Degree Days 4 16  
Month to date heating degree days 9 116  
Since 1 July heating degree days 203 386  
Cooling Degree Days 0 0  
Month to date cooling degree days 46 0  
Year to date cooling degree days 694 548  
Growing Degree Days 10 (Base 50)    
Moisture  
Dew Point 45 °F    
Average Humidity 59    
Maximum Humidity 72    
Minimum Humidity 45    
Precipitation  
Precipitation 0.00 in 0.07 in 0.98 in (1997)
Month to date precipitation T 0.65  
Year to date precipitation 22.39 19.28  
Snow  
Snow 0.00 in 0.00 in 0.70 in (1927)
Month to date snowfall 0.0 0.0  
Since 1 July snowfall 0.0 0.0  
Since 1 September snowfall 0.0 0.0  
Snow Depth 0.00 in    
Sea Level Pressure  
Sea Level Pressure 29.98 in    
Wind  
Wind Speed 10 mph (WSW)    
Max Wind Speed 17 mph    
Max Gust Speed 22 mph    
Visibility 10 miles    
Events      
T = Trace of Precipitation, MM = Missing Value Source: NWS Daily Summary

Daily Weather History Graph

Daily Weather History Graph

Search for Another Location

Airport or City:

Trip Planner

Search our weather history database for the weather conditions in past years. The results will help you decide how hot, cold, wet, or windy it might be!

Date:

Astronomy

Oct. 08, 2011 Rise Set
Actual Time 7:35 AM CDT 6:53 PM CDT
Civil Twilight 7:04 AM CDT 7:24 PM CDT
Nautical Twilight 6:29 AM CDT 7:59 PM CDT
Astronomical Twilight 5:54 AM CDT 8:34 PM CDT
Moon 5:12 PM CDT (10/8) 4:13 AM CDT (10/8)
Length of Visible Light 12h 19m
Length of Day
11h 18m
Waxing Gibbous, 90% of the Moon is Illuminated
Oct 8
Waxing Gibbous
Oct 11
Full
Oct 19
Last Quarter
Oct 26
New
Nov 2
First Quarter

Hourly Weather History & Observations

Time (CDT) Temp. Dew Point Humidity Pressure Visibility Wind Dir Wind Speed Gust Speed Precip Events Conditions
12:53 AM 62.1 °F 42.1 °F 48% 29.73 in 10.0 mi SSW 13.8 mph - N/A   Clear
1:53 AM 61.0 °F 43.0 °F 52% 29.76 in 10.0 mi South 15.0 mph - N/A   Clear
2:53 AM 60.1 °F 42.1 °F 51% 29.79 in 10.0 mi South 12.7 mph - N/A   Clear
3:53 AM 59.0 °F 43.0 °F 55% 29.81 in 10.0 mi SSW 13.8 mph - N/A   Clear
4:53 AM 59.0 °F 45.0 °F 60% 29.84 in 10.0 mi SW 13.8 mph - N/A   Clear
5:53 AM 57.9 °F 45.0 °F 62% 29.88 in 10.0 mi SSW 15.0 mph - N/A   Clear
6:53 AM 57.0 °F 46.0 °F 67% 29.90 in 10.0 mi SW 12.7 mph - N/A   Clear
7:53 AM 55.9 °F 46.0 °F 69% 29.91 in 10.0 mi SW 10.4 mph - N/A   Clear
8:53 AM 57.0 °F 46.9 °F 69% 29.93 in 10.0 mi WSW 11.5 mph - N/A   Clear
9:53 AM 59.0 °F 46.9 °F 64% 29.96 in 10.0 mi West 12.7 mph - N/A   Clear
10:53 AM 61.0 °F 46.0 °F 58% 30.00 in 10.0 mi West 13.8 mph 18.4 mph N/A   Partly Cloudy
11:53 AM 64.0 °F 45.0 °F 50% 30.01 in 10.0 mi West 13.8 mph 20.7 mph N/A   Clear
12:53 PM 64.0 °F 45.0 °F 50% 30.01 in 10.0 mi West 9.2 mph - N/A   Partly Cloudy
1:53 PM 64.9 °F 45.0 °F 48% 30.01 in 10.0 mi WNW 6.9 mph - N/A   Partly Cloudy
2:53 PM 66.0 °F 45.0 °F 47% 30.02 in 10.0 mi WSW 11.5 mph - N/A   Overcast
3:53 PM 66.0 °F 45.0 °F 47% 30.03 in 10.0 mi West 9.2 mph - N/A   Overcast
4:53 PM 64.0 °F 44.1 °F 48% 30.05 in 10.0 mi West 5.8 mph - N/A   Overcast
5:53 PM 63.0 °F 44.1 °F 50% 30.07 in 10.0 mi West 11.5 mph - N/A   Overcast
6:53 PM 62.1 °F 45.0 °F 53% 30.08 in 10.0 mi NW 11.5 mph - N/A   Overcast
7:53 PM 61.0 °F 45.0 °F 56% 30.12 in 10.0 mi WNW 5.8 mph - N/A   Overcast
8:53 PM 60.1 °F 45.0 °F 57% 30.14 in 10.0 mi WNW 5.8 mph - N/A   Overcast
9:53 PM 59.0 °F 45.0 °F 60% 30.15 in 10.0 mi Calm Calm - N/A   Mostly Cloudy
10:53 PM 57.9 °F 45.0 °F 62% 30.17 in 10.0 mi Calm Calm - N/A   Mostly Cloudy
11:53 PM 57.0 °F 44.1 °F 62% 30.17 in 10.0 mi NNW 9.2 mph - N/A   Partly Cloudy